Wind_Speed
28 28 28 28 27 27 26 26 26 27 27 28 28 29 30 30 31 31 32 32 32 32 33 33 34 34 34 35 35 35 35 35 36 36 36 35 35 35 35 35 35 34 33
30 30 29 28 28 27 27 27 27 27 28 28 29 29 30 31 32 33 33 34 34 34 35 35 36 36 37 37 37 37 37 37 38 38 38 38 38 37 37 37 37 36 35
31 30 30 29 28 28 28 28 28 29 29 29 30 31 32 32 33 34 35 35 36 36 36 37 38 38 38 39 39 39 39 40 40 40 40 40 40 40 40 40 39 39 38
32 31 30 30 30 30 30 30 30 31 31 31 32 32 33 33 34 35 36 37 37 37 38 38 38 39 40 40 40 41 41 41 42 42 42 42 41 42 42 42 42 41 41
33 33 32 32 32 32 32 32 33 33 32 32 32 33 33 34 35 36 36 37 38 38 39 39 39 40 40 41 42 42 42 43 43 43 44 44 43 43 43 43 43 43 43
33 32 33 32 32 33 33 34 34 34 34 34 34 34 34 35 36 37 37 38 39 39 40 40 40 40 41 42 42 42 43 43 44 44 45 45 44 44 44 44 44 45 44
33 33 33 33 33 34 34 35 35 35 35 35 35 35 36 37 37 38 38 38 39 40 40 40 40 40 41 41 42 43 44 44 45 45 46 46 46 46 46 46 45 45 45
35 34 34 34 34 35 35 36 36 36 36 37 37 37 38 38 38 39 39 39 40 41 41 41 41 41 41 42 42 43 44 45 45 46 46 46 46 46 46 46 46 46 45
36 36 35 36 36 36 37 37 37 37 37 38 39 39 39 39 39 39 39 40 40 41 41 41 42 42 43 43 43 44 44 45 46 46 46 46 46 47 47 47 47 47 46
38 38 37 37 37 37 38 38 39 39 39 40 40 41 41 41 40 40 40 40 40 41 41 41 41 42 43 43 43 43 44 45 45 46 46 46 46 47 47 47 47 48 48
39 39 38 38 38 38 39 39 40 40 41 42 42 42 41 41 41 41 40 40 40 41 41 42 42 42 42 43 43 43 44 45 45 46 46 46 46 46 47 47 47 48 49
39 39 39 39 39 40 40 41 42 42 43 43 43 42 42 42 42 42 42 42 42 42 42 42 42 42 43 44 44 44 45 45 46 46 47 47 47 47 47 47 48 49 50
39 39 40 40 40 41 42 43 43 43 44 44 44 44 44 44 44 44 43 43 43 42 42 42 43 43 44 45 45 45 45 45 46 47 47 47 48 48 48 49 49 49 50
40 41 42 42 42 43 43 43 44 44 44 45 45 45 45 45 45 45 45 44 44 43 44 44 44 44 45 45 45 46 46 46 47 47 47 47 48 49 49 50 50 50 50
41 42 43 43 44 44 44 44 44 44 45 46 46 46 46 47 47 47 47 46 46 45 45 46 46 46 46 46 46 47 47 47 48 48 48 49 49 50 50 50 51 51 51
41 42 43 44 45 45 45 45 45 46 47 47 47 48 48 49 49 49 49 48 47 47 46 46 47 47 47 48 47 48 48 48 48 48 49 49 49 49 50 51 52 52 52
40 42 44 45 46 46 46 46 46 48 48 48 48 48 48 49 49 49 49 49 49 49 48 47 48 48 49 49 49 49 49 49 49 49 49 49 49 49 50 51 52 53 53
41 42 43 45 46 47 47 47 47 48 48 47 47 48 49 49 49 49 50 50 50 50 50 49 49 50 50 50 50 50 50 49 49 49 49 49 49 50 50 50 51 52 52
41 42 43 44 45 46 47 47 47 47 47 47 47 47 48 48 48 49 49 50 51 51 52 51 51 50 50 51 51 51 50 50 50 49 49 50 50 50 51 51 51 51 51
42 42 43 44 44 45 46 46 45 45 45 45 45 45 46 47 48 48 49 50 51 51 51 51 50 49 49 50 50 49 49 49 50 50 50 49 49 50 50 51 51 50 50
42 43 43 44 44 44 45 45 44 44 44 44 44 44 45 46 46 47 48 48 49 49 48 48 49 49 49 49 49 49 48 48 48 49 49 49 49 50 50 50 50 50 51
43 43 44 44 44 43 43 43 43 43 44 44 44 44 44 44 45 45 46 47 47 47 47 48 48 48 49 49 48 48 48 48 48 49 49 50 50 50 50 50 50 50 50
43 43 44 43 42 41 41 42 42 42 42 42 42 42 42 42 42 43 44 44 45 46 47 47 47 47 47 47 47 47 48 48 48 49 49 49 50 50 50 49 49 49 50
42 42 42 42 42 41 41 41 41 42 41 41 41 41 42 42 42 42 43 43 44 44 45 45 45 45 45 46 46 46 47 47 47 48 49 48 49 49 49 49 49 49 49
41 41 41 41 41 41 41 41 41 41 41 41 41 41 41 41 42 42 42 41 41 42 42 43 43 43 44 44 45 45 46 46 45 46 47 46 46 47 47 48 48 48 48
40 40 41 40 40 40 40 40 40 40 40 40 40 40 40 40 40 40 39 39 40 40 40 41 41 42 43 43 44 44 44 44 44 44 44 45 45 45 45 45 46 45 45
Wind_Direction
265 267 268 268 268 268 268 268 269 270 270 270 272 273 274 273 273 274 274 274 274 274 274 274 273 273 274 274 274 273 273 273 273 273 273 273 273 273 273 274 274 275 276
265 266 266 266 267 267 268 269 270 271 272 272 273 274 274 274 275 275 275 274 274 274 274 274 273 273 273 273 274 273 273 273 273 273 273 272 272 272 272 273 273 274 275
262 264 264 264 265 266 267 268 270 272 273 274 274 275 275 275 276 276 276 275 274 274 274 274 273 273 273 273 273 273 273 273 273 273 272 272 272 272 271 271 272 273 274
260 263 264 264 265 265 267 269 271 272 273 274 274 275 275 276 277 277 277 276 276 275 275 275 275 274 274 273 273 274 273 273 273 273 272 272 272 271 271 271 271 272 273
260 261 264 265 265 266 268 270 271 273 273 274 275 276 276 277 278 279 279 278 277 276 275 275 274 274 274 274 274 274 274 274 273 273 273 272 272 272 272 271 271 271 272
259 261 263 266 266 267 269 270 271 273 274 274 275 276 277 278 279 279 278 278 277 277 276 275 274 274 274 274 274 275 275 274 273 273 272 272 271 271 271 271 271 270 270
261 262 263 265 266 267 269 270 271 272 273 274 275 276 277 278 279 279 278 278 277 277 276 274 274 274 274 274 274 275 275 275 274 272 272 272 271 271 271 270 270 271 271
264 265 265 264 267 268 269 270 271 272 273 274 275 276 277 278 279 279 279 278 278 277 276 275 274 274 274 275 276 276 276 275 274 273 272 272 272 271 271 269 268 269 270
265 266 265 265 268 269 270 271 272 272 273 274 276 277 278 278 279 279 279 278 278 278 277 276 275 275 275 276 276 276 275 274 274 273 273 272 271 271 271 270 269 268 269
265 266 266 267 268 270 270 271 272 273 274 275 277 278 279 279 280 280 279 278 278 278 277 277 277 277 276 277 277 277 276 276 275 274 273 273 272 272 271 270 269 268 268
265 265 266 268 269 269 270 271 272 274 274 276 277 278 278 279 280 281 280 279 278 278 277 277 277 278 277 278 277 278 278 277 276 275 274 273 273 272 270 269 269 268 267
266 267 268 269 269 271 272 272 273 274 274 276 276 277 278 278 279 279 279 279 278 278 278 277 277 278 278 278 278 278 278 277 276 276 275 274 272 272 270 269 269 268 267
266 269 269 270 271 272 273 273 273 274 275 275 276 277 277 278 279 278 279 278 278 277 277 277 277 278 278 278 278 278 277 277 276 276 275 274 272 271 270 269 269 269 268
267 268 270 270 272 273 274 274 274 274 275 275 276 277 277 278 277 278 278 278 277 277 276 276 277 278 279 279 278 278 277 277 277 276 275 274 272 270 269 270 270 269 268
267 268 270 271 272 273 273 274 275 275 275 276 276 276 277 277 277 277 278 279 278 278 277 277 277 278 278 279 279 278 278 278 277 276 275 274 273 271 270 270 270 270 269
270 270 271 273 273 274 276 276 276 275 276 276 276 276 276 276 277 278 279 278 278 279 278 277 277 278 278 278 279 278 278 278 277 276 275 274 273 273 271 271 271 270 270
272 272 272 273 274 275 276 277 277 276 277 277 275 275 276 277 278 278 278 278 278 279 278 278 278 278 278 278 279 279 278 278 278 277 275 275 273 274 274 273 272 271 271
274 274 274 275 276 276 276 276 277 278 277 277 277 277 277 277 278 278 278 278 278 278 278 278 278 279 279 279 279 279 279 278 277 277 276 275 274 275 275 274 273 272 271
276 277 277 278 278 277 278 279 278 278 278 278 278 278 278 278 278 278 278 278 278 277 277 278 278 279 280 280 279 279 278 278 278 277 277 276 276 275 276 275 274 272 271
278 279 278 279 279 280 280 281 280 279 279 280 280 280 280 279 278 279 279 279 279 278 278 278 278 279 279 280 279 279 278 278 278 278 278 277 277 276 276 276 274 272 271
279 280 280 280 280 281 282 281 280 280 281 281 280 281 280 279 279 280 280 280 280 279 278 278 278 279 279 278 279 279 279 279 279 278 278 277 277 276 276 276 274 272 271
280 280 280 280 281 281 282 281 281 280 281 281 281 280 280 280 280 281 281 280 279 279 279 279 280 280 279 279 279 279 279 279 279 278 278 277 277 277 277 276 275 273 272
280 281 282 281 280 280 280 279 280 280 280 280 281 280 280 280 281 282 282 281 280 280 280 281 281 280 280 280 280 280 279 279 279 279 278 278 277 277 277 277 276 273 272
280 280 280 280 280 278 278 278 279 280 281 282 282 282 281 280 280 280 281 281 281 282 283 283 283 283 282 281 281 281 280 280 279 280 280 279 278 278 277 277 276 275 273
278 279 279 280 279 278 278 279 279 280 281 282 282 282 282 282 281 281 281 283 284 285 285 285 284 284 283 283 283 283 282 281 281 281 280 279 278 278 278 278 277 276 276
279 279 279 280 279 278 278 279 280 280 281 281 282 282 282 282 282 283 284 285 286 287 287 286 286 285 285 284 284 284 284 283 283 282 281 281 280 279 278 277 278 277 277
Height
5816 5816 5816 5815 5815 5815 5815 5815 5814 5813 5813 5812 5812 5811 5811 5810 5809 5809 5808 5808 5807 5806 5806 5805 5804 5804 5803 5803 5802 5802 5801 5801 5801 5800 5800 5800 5799 5799 5799 5798 5798 5798 5797
5809 5809 5809 5809 5809 5809 5808 5808 5808 5807 5806 5806 5805 5804 5803 5803 5802 5801 5801 5800 5799 5798 5798 5797 5796 5796 5795 5794 5794 5793 5793 5793 5792 5792 5791 5791 5791 5791 5790 5790 5790 5790 5789
5802 5802 5802 5802 5802 5802 5802 5802 5801 5800 5800 5799 5798 5797 5796 5795 5794 5793 5792 5791 5790 5790 5789 5788 5788 5787 5786 5785 5785 5784 5784 5783 5783 5782 5782 5782 5782 5782 5781 5781 5781 5781 5781
5795 5795 5795 5795 5795 5795 5795 5795 5794 5793 5792 5791 5790 5789 5788 5787 5786 5785 5783 5782 5781 5781 5780 5779 5778 5778 5777 5776 5776 5775 5774 5774 5773 5773 5772 5772 5772 5772 5772 5772 5772 5772 5772
5786 5787 5787 5787 5787 5787 5787 5787 5786 5786 5785 5784 5783 5781 5780 5779 5778 5776 5774 5773 5772 5771 5770 5769 5769 5768 5767 5767 5766 5765 5765 5764 5763 5763 5762 5762 5762 5762 5762 5762 5762 5762 5762
5779 5779 5779 5779 5779 5780 5779 5779 5778 5778 5777 5776 5775 5773 5772 5771 5769 5767 5765 5764 5763 5761 5760 5760 5759 5758 5757 5757 5756 5755 5755 5754 5753 5752 5752 5752 5752 5752 5751 5751 5751 5751 5751
5771 5771 5771 5771 5771 5771 5771 5771 5770 5769 5768 5767 5766 5765 5763 5762 5760 5758 5756 5754 5753 5752 5750 5750 5749 5748 5747 5746 5746 5745 5744 5743 5742 5742 5741 5741 5741 5741 5741 5740 5740 5740 5740
5763 5763 5763 5763 5763 5763 5762 5762 5761 5760 5759 5758 5757 5756 5755 5753 5751 5748 5746 5745 5743 5742 5740 5739 5739 5738 5737 5736 5735 5734 5733 5732 5731 5731 5730 5730 5729 5729 5729 5729 5729 5729 5729
5754 5754 5754 5754 5754 5754 5753 5753 5752 5751 5750 5749 5748 5746 5745 5743 5741 5740 5737 5735 5733 5732 5730 5729 5728 5727 5726 5726 5725 5723 5722 5721 5720 5719 5718 5718 5718 5717 5717 5717 5717 5717 5717
5745 5746 5746 5745 5745 5745 5744 5743 5743 5742 5741 5740 5738 5736 5734 5733 5731 5730 5728 5726 5724 5722 5720 5719 5718 5717 5716 5715 5714 5712 5711 5710 5709 5708 5707 5706 5706 5705 5705 5705 5705 5705 5705
5736 5736 5736 5736 5736 5735 5734 5733 5733 5731 5730 5729 5728 5726 5724 5722 5720 5718 5718 5716 5714 5712 5710 5709 5708 5706 5705 5704 5703 5701 5700 5699 5697 5696 5695 5694 5694 5693 5693 5692 5692 5692 5692
5727 5727 5727 5726 5726 5725 5724 5723 5722 5721 5720 5718 5717 5715 5713 5712 5710 5708 5707 5705 5704 5702 5700 5698 5697 5695 5694 5693 5691 5690 5688 5687 5685 5684 5683 5682 5682 5681 5680 5680 5680 5680 5680
5717 5717 5717 5716 5716 5715 5713 5712 5711 5710 5708 5707 5705 5704 5702 5701 5699 5697 5696 5694 5693 5691 5689 5687 5685 5684 5682 5681 5679 5678 5676 5675 5673 5672 5671 5670 5669 5668 5668 5667 5667 5667 5667
5707 5707 5707 5706 5705 5704 5703 5702 5700 5699 5697 5696 5694 5692 5691 5689 5687 5686 5684 5683 5681 5680 5678 5676 5674 5672 5671 5669 5667 5665 5664 5662 5661 5659 5658 5657 5656 5655 5655 5654 5654 5654 5654
5697 5696 5696 5695 5694 5693 5692 5690 5689 5687 5686 5684 5682 5680 5679 5677 5676 5674 5672 5671 5669 5668 5667 5665 5663 5660 5658 5657 5655 5653 5651 5650 5648 5646 5645 5644 5643 5642 5642 5641 5641 5641 5641
5686 5685 5685 5684 5683 5682 5680 5678 5677 5675 5674 5672 5670 5669 5667 5665 5663 5661 5660 5658 5656 5655 5654 5653 5650 5648 5646 5644 5642 5640 5638 5637 5635 5633 5632 5631 5630 5629 5628 5628 5627 5627 5627
5675 5674 5674 5673 5671 5670 5668 5666 5665 5663 5661 5660 5658 5656 5654 5652 5651 5649 5647 5645 5643 5641 5640 5639 5637 5635 5633 5631 5629 5627 5625 5623 5621 5620 5618 5617 5616 5615 5614 5613 5613 5612 5612
5664 5663 5662 5661 5659 5658 5656 5654 5652 5650 5649 5647 5645 5643 5641 5639 5637 5635 5633 5631 5630 5627 5626 5625 5624 5621 5619 5616 5615 5613 5611 5609 5607 5606 5604 5603 5602 5601 5600 5599 5598 5597 5597
5653 5652 5650 5649 5647 5645 5644 5642 5640 5638 5636 5634 5632 5630 5628 5625 5624 5621 5619 5617 5615 5613 5612 5610 5609 5607 5605 5602 5600 5599 5597 5595 5593 5591 5590 5588 5587 5586 5585 5584 5583 5582 5582
5642 5640 5638 5637 5635 5633 5631 5629 5627 5625 5623 5621 5619 5617 5615 5612 5610 5608 5606 5604 5601 5599 5597 5595 5594 5593 5590 5588 5586 5584 5582 5580 5579 5577 5575 5574 5573 5571 5570 5569 5568 5567 5567
5630 5628 5627 5625 5623 5621 5619 5616 5615 5613 5611 5609 5606 5604 5602 5599 5597 5595 5592 5590 5587 5585 5583 5581 5579 5578 5576 5573 5571 5569 5568 5566 5564 5562 5560 5559 5558 5557 5555 5554 5552 5551 5551
5618 5616 5615 5613 5611 5608 5606 5604 5602 5600 5598 5596 5594 5591 5589 5586 5584 5581 5579 5576 5574 5571 5569 5567 5565 5563 5561 5559 5557 5555 5553 5552 5551 5549 5546 5544 5542 5541 5540 5539 5537 5536 5535
5606 5604 5602 5600 5598 5596 5593 5591 5589 5587 5586 5583 5581 5579 5576 5573 5571 5568 5566 5563 5560 5557 5555 5553 5551 5549 5546 5545 5543 5541 5538 5537 5535 5533 5531 5530 5527 5526 5524 5523 5522 5521 5520
5594 5592 5589 5587 5585 5583 5581 5579 5577 5575 5573 5571 5569 5566 5564 5561 5558 5556 5553 5551 5548 5545 5542 5540 5537 5535 5532 5530 5528 5526 5524 5522 5521 5518 5516 5515 5513 5511 5509 5507 5506 5504 5503
5581 5579 5577 5575 5573 5571 5569 5566 5564 5562 5561 5558 5556 5554 5551 5549 5546 5544 5541 5539 5536 5533 5529 5526 5524 5521 5518 5516 5514 5512 5510 5508 5507 5504 5501 5500 5499 5497 5495 5492 5490 5488 5487
5569 5567 5565 5563 5560 5559 5557 5554 5552 5550 5549 5546 5544 5542 5539 5537 5534 5532 5529 5527 5524 5521 5518 5515 5512 5509 5506 5503 5500 5498 5496 5494 5492 5491 5488 5486 5484 5482 5481 5479 5476 5474 5472